Terug naar catalogus

STARLINK-37609

ActiefCommunicatieSSO
NORAD 69036·PAYLOAD·🇺🇸 United States

Gelanceerd May 6, 2026 vanaf Vandenberg Space Force Base

Loading…

Volgende Passages (komende 24 uur)

TLE

VersSource: CelesTrak SupGP

Epoch: Sep 14, 2026, 21:08 UTC

1 69036C 26101M   26257.88104167  .00028975  00000+0  89970-3 0  2574
2 69036  97.2844 111.4681 0002034  91.7204 114.7891 15.33414879    11

Volg STARLINK-37609 in realtime met AllMySat

Download on the App Store